Location: Unspecified
(0.0000°N, 0.0000°E)
Time: 05:53:35
(UTC+00:00)

Altair - Pass Details

Date: 24 May 2026
Orbit: 1501 x 1682 km, 47.2° (Epoch: 8 June)

Event Time Altitude Azimuth Distance (km) Brightness Sun altitude
Exits shadow 01:12:31 11° 10° (N) 3,743 9.7 -62.2°
Drops below altitude 10° 01:12:38 10° 10° (N) 3,772 9.8 -62.2°
Sets 01:16:25 0° 21° (NNE) 4,815 10.5 -61.6°
